EW7614 Weather Reports


Display with metric or nautical units.
time (UTC)temp
F
wind
direction
speed
MPH
gust
MPH
rain 1hr
in
rain 24hr
in
rain mn
in
humidity
%
barometer
mb
20260831010126 60 355 0.0 0.0 0.00 0.00 0.00 89 1012.7
20260831004534 60 10 0.0 0.0 0.00 0.00 0.00 89 1012.5
20260831003124 61 32 0.0 0.0 0.00 0.00 0.00 89 1012.8
20260831001606 61 32 0.0 0.0 0.00 0.00 0.00 89 1012.8
20260831000032 60 32 0.0 0.0 0.00 0.00 0.00 89 1013.0
20260830234618 60 284 0.0 0.0 0.00 0.00 0.00 89 1012.9
20260830233008 60 289 0.0 0.0 0.00 0.00 0.00 89 1012.9
20260830231524 59 289 0.0 0.0 0.00 0.00 0.00 90 1012.9
20260830230118 59 289 0.0 0.0 0.00 0.00 0.00 90 1012.9
20260830224555 60 289 0.0 0.0 0.00 0.00 0.00 88 1012.9
20260830223002 61 290 0.0 0.0 0.00 0.00 0.00 88 1012.9
20260830221618 61 291 0.0 0.0 0.00 0.00 0.00 88 1013.0
20260830220032 60 291 0.0 1.0 0.00 0.00 0.00 88 1012.9
20260830214503 61 13 0.0 0.0 0.00 0.00 0.00 85 1012.8
20260830213047 62 13 0.0 0.0 0.00 0.00 0.00 84 1012.7
20260830211624 63 13 0.0 0.0 0.00 0.00 0.00 82 1012.5
20260830210031 64 13 0.0 0.0 0.00 0.00 0.00 80 1012.4
20260830204620 65 296 2.0 5.0 0.00 0.00 0.00 78 1012.3
20260830203036 65 309 1.0 4.0 0.00 0.00 0.00 78 1012.4
20260830201620 66 283 0.0 4.0 0.00 0.00 0.00 76 1012.4
20260830200023 67 209 3.0 9.0 0.00 0.00 0.00 72 1012.4
20260830194620 68 305 0.0 4.0 0.00 0.00 0.00 73 1012.4
20260830193045 67 207 0.0 2.0 0.00 0.00 0.00 74 1012.1
20260830191622 69 233 2.0 7.0 0.00 0.00 0.00 68 1012.1
20260830190024 69 215 2.0 5.0 0.00 0.00 0.00 68 1011.9
20260830184618 69 151 0.0 0.0 0.00 0.00 0.00 68 1011.8
20260830183054 70 236 0.0 5.0 0.00 0.00 0.00 66 1011.5
20260830181635 71 215 0.0 6.0 0.00 0.00 0.00 63 1011.3
20260830180039 72 199 0.0 8.0 0.00 0.00 0.00 63 1011.1
20260830171535 75 133 0.0 1.0 0.00 0.00 0.00 58 1010.5
20260830170131 77 205 0.0 3.0 0.00 0.00 0.00 57 1010.4
20260830163106 79 205 0.0 1.0 0.00 0.00 0.00 56 1010.4
20260830154703 80 212 0.0 1.0 0.00 0.00 0.00 58 1010.4
20260830153036 82 265 0.0 1.0 0.00 0.00 0.00 59 1010.3
20260830151614 83 280 0.0 3.0 0.00 0.00 0.00 52 1010.4
20260830150106 84 100 0.0 1.0 0.00 0.00 0.00 48 1010.4
20260830144530 84 161 0.0 2.0 0.00 0.00 0.00 51 1010.4
20260830143122 83 80 0.0 4.0 0.00 0.00 0.00 50 1010.5
20260830141550 83 75 1.0 7.0 0.00 0.00 0.00 47 1010.7
20260830140120 83 63 0.0 6.0 0.00 0.00 0.00 52 1010.8
20260830134536 83 117 0.0 3.0 0.00 0.00 0.00 50 1010.9
20260830133119 82 56 0.0 5.0 0.00 0.00 0.00 47 1011.1
20260830131526 82 85 0.0 4.0 0.00 0.00 0.00 51 1011.3
20260830130115 82 232 0.0 3.0 0.00 0.00 0.00 55 1011.4
20260830124504 80 204 0.0 3.0 0.00 0.00 0.00 56 1011.7
20260830123038 81 231 0.0 2.0 0.00 0.00 0.00 50 1011.9
20260830121621 81 80 0.0 3.0 0.00 0.00 0.00 51 1012.0
20260830120059 80 48 0.0 3.0 0.00 0.00 0.00 56 1012.2
20260830114631 79 84 0.0 3.0 0.00 0.00 0.00 51 1012.4
20260830113114 79 225 0.0 1.0 0.00 0.00 0.00 55 1012.5
20260830111502 78 206 0.0 1.0 0.00 0.00 0.00 55 1012.8
20260830110136 77 102 0.0 3.0 0.00 0.00 0.00 57 1013.1
20260830104612 76 67 0.0 2.0 0.00 0.00 0.00 54 1013.3
20260830103030 75 69 0.0 3.0 0.00 0.00 0.00 57 1013.5
20260830101627 75 167 0.0 4.0 0.00 0.00 0.00 64 1013.9
20260830100026 73 170 0.0 0.0 0.00 0.00 0.00 64 1014.2
20260830094620 73 93 0.0 0.0 0.00 0.00 0.00 64 1014.3
20260830093027 72 321 0.0 0.0 0.00 0.00 0.00 68 1014.6
20260830091626 71 333 0.0 0.0 0.00 0.00 0.00 65 1014.8
20260830090047 70 28 0.0 0.0 0.00 0.00 0.00 66 1015.0
20260830084509 69 259 0.0 0.0 0.00 0.00 0.00 71 1015.2
20260830083154 68 253 0.0 0.0 0.00 0.00 0.00 72 1015.4
20260830080114 66 318 0.0 0.0 0.00 0.00 0.00 75 1015.7
20260830074525 65 281 0.0 0.0 0.00 0.00 0.00 81 1015.7
20260830073126 63 267 0.0 0.0 0.00 0.00 0.00 83 1015.6
20260830071523 60 277 0.0 0.0 0.00 0.00 0.00 88 1015.5
20260830070120 59 281 0.0 0.0 0.00 0.00 0.00 91 1015.4
20260830064614 57 267 0.0 0.0 0.00 0.00 0.00 93 1015.5
20260830063034 56 267 0.0 0.0 0.00 0.00 0.00 94 1015.7
20260830061617 55 267 0.0 0.0 0.00 0.00 0.00 95 1015.7
20260830060016 54 267 0.0 0.0 0.00 0.00 0.00 96 1015.7
20260830054615 53 262 0.0 0.0 0.00 0.00 0.00 96 1015.8
20260830053038 53 258 0.0 0.0 0.00 0.00 0.00 96 1015.7
20260830051616 52 259 0.0 0.0 0.00 0.00 0.00 96 1015.8
20260830050021 52 279 0.0 0.0 0.00 0.00 0.00 96 1015.5
20260830044611 52 279 0.0 0.0 0.00 0.00 0.00 96 1015.4
20260830043052 53 281 0.0 0.0 0.00 0.00 0.00 96 1015.3
20260830041616 53 307 0.0 0.0 0.00 0.00 0.00 95 1015.3
20260830040029 53 307 0.0 0.0 0.00 0.00 0.00 95 1015.2
20260830034614 53 270 0.0 0.0 0.00 0.00 0.00 95 1015.2
20260830033022 54 288 0.0 0.0 0.00 0.00 0.00 94 1015.1
20260830031622 54 288 0.0 0.0 0.00 0.00 0.00 94 1015.2
20260830030055 55 288 0.0 0.0 0.00 0.00 0.00 94 1015.1
20260830024508 55 288 0.0 0.0 0.00 0.00 0.00 93 1015.1
20260830023105 56 288 0.0 0.0 0.00 0.00 0.00 93 1015.2
20260830021622 56 290 0.0 0.0 0.00 0.00 0.00 93 1015.2
20260830014503 57 277 0.0 0.0 0.00 0.00 0.00 92 1015.0
20260830013044 57 277 0.0 0.0 0.00 0.00 0.00 93 1015.0
20260830011624 57 275 0.0 0.0 0.00 0.00 0.00 92 1015.0